KG7KID-7 Weather Reports


time (UTC)temp
C
wind
direction
speed
KPH
gust
KPH
rain 1hr
cm
rain 24hr
cm
rain mn
cm
humidity
%
barometer
mb
20260507062406 -17 0.0 0.0 0.00 0.00 0.00 980.3
20260507061950 -17 0.0 0.0 0.00 0.00 0.00 980.2
20260507061906 -17 0.0 0.0 0.00 0.00 0.00 980.2
20260507060906 -17 0.0 0.0 0.00 0.00 0.00 980.1
20260507060406 -17 0.0 0.0 0.00 0.00 0.00 980.0
20260507055906 -17 0.0 0.0 0.00 0.00 0.00 979.9
20260507055406 -17 0.0 0.0 0.00 0.00 0.00 979.9
20260507054906 -17 0.0 0.0 0.00 0.00 0.00 979.9
20260507053406 -17 0.0 0.0 0.00 0.00 0.00 979.8
20260507052906 -17 0.0 0.0 0.00 0.00 0.00 979.7
20260507052407 -17 0.0 0.0 0.00 0.00 0.00 979.8
20260507051941 -17 0.0 0.0 0.00 0.00 0.00 979.8
20260507051906 -17 0.0 0.0 0.00 0.00 0.00 979.8
20260507051406 -17 0.0 0.0 0.00 0.00 0.00 979.7
20260507050406 -17 0.0 0.0 0.00 0.00 0.00 979.6
20260507045906 -17 0.0 0.0 0.00 0.00 0.00 979.5
20260507043905 -17 0.0 0.0 0.00 0.00 0.00 979.3
20260507043405 -17 0.0 0.0 0.00 0.00 0.00 979.3
20260507043011 -17 0.0 0.0 0.00 0.00 0.00 979.2
20260507042905 -17 0.0 0.0 0.00 0.00 0.00 979.2
20260507042444 -17 0.0 0.0 0.00 0.00 0.00 979.1
20260507042405 -17 0.0 0.0 0.00 0.00 0.00 979.1
20260507042031 -17 0.0 0.0 0.00 0.00 0.00 979.0
20260507041906 -17 0.0 0.0 0.00 0.00 0.00 979.0
20260507034945 -17 0.0 0.0 0.00 0.00 0.00 978.5
20260507034906 -17 0.0 0.0 0.00 0.00 0.00 978.5
20260507014657 25 259 3.2 16.1 0.00 0.00 0.00 20 976.3
20260507012656 26 195 6.4 12.9 0.00 0.00 0.00 17 976.1
20260507012157 26 0 0.0 8.0 0.00 0.00 0.00 18 976.1
20260507011657 26 0 0.0 17.7 0.00 0.00 0.00 17 976.1
20260507004156 27 256 1.6 9.7 0.00 0.00 0.00 17 976.2
20260506235437 27 277 4.8 12.9 0.00 0.00 0.00 17 975.4
20260506234817 27 255 8.0 17.7 0.00 0.00 0.00 17 975.5
20260506234318 27 274 6.4 17.7 0.00 0.00 0.00 17 975.4
20260506232816 27 0 0.0 9.7 0.00 0.00 0.00 17 975.6
20260506231816 26 263 1.6 14.5 0.00 0.00 0.00 18 975.7
20260506231036 27 0 0.0 16.1 0.00 0.00 0.00 17 975.7
20260506230536 27 281 1.6 16.1 0.00 0.00 0.00 18 975.9
20260506230036 26 272 3.2 11.3 0.00 0.00 0.00 18 975.8
20260506225928 26 0 0.0 8.0 0.00 0.00 0.00 18 975.9
20260506225536 26 0 0.0 8.0 0.00 0.00 0.00 18 975.9
20260506225301 26 0 0.0 16.1 0.00 0.00 0.00 18 976.0
20260506225035 26 0 0.0 16.1 0.00 0.00 0.00 18 976.0
20260506224800 26 287 1.6 16.1 0.00 0.00 0.00 18 976.1
20260506224536 26 287 1.6 16.1 0.00 0.00 0.00 18 976.1
20260506224302 26 0 0.0 6.4 0.00 0.00 0.00 18 976.1
20260506224036 26 0 0.0 6.4 0.00 0.00 0.00 18 976.1
20260506223536 26 0 0.0 3.2 0.00 0.00 0.00 18 976.1
20260506223123 26 0 0.0 14.5 0.00 0.00 0.00 18 976.3
20260506222839 26 0 0.0 14.5 0.00 0.00 0.00 18 976.3
20260506222620 26 0 0.0 9.7 0.00 0.00 0.00 19 976.4
20260506222340 26 0 0.0 9.7 0.00 0.00 0.00 19 976.4
20260506221839 26 0 0.0 12.9 0.00 0.00 0.00 19 976.5
20260506221651 25 0 0.0 12.9 0.00 0.00 0.00 19 976.6
20260506221339 25 0 0.0 12.9 0.00 0.00 0.00 19 976.6
20260506220839 25 0 0.0 16.1 0.00 0.00 0.00 19 976.7
20260506220639 25 286 1.6 19.3 0.00 0.00 0.00 20 976.8
20260506220339 25 286 1.6 19.3 0.00 0.00 0.00 20 976.8
20260506215840 25 294 6.4 19.3 0.00 0.00 0.00 19 977.0
20260506215646 25 0 0.0 24.1 0.00 0.00 0.00 19 977.0
20260506215339 25 0 0.0 24.1 0.00 0.00 0.00 19 977.0
20260506214340 25 289 4.8 29.0 0.00 0.00 0.00 19 977.0
20260506214206 25 0 0.0 16.1 0.00 0.00 0.00 20 977.2
20260506213839 25 0 0.0 16.1 0.00 0.00 0.00 20 977.2
20260506213339 25 266 1.6 16.1 0.00 0.00 0.00 19 977.3
20260506212712 25 0 0.0 14.5 0.00 0.00 0.00 20 977.3
20260506212339 25 0 0.0 14.5 0.00 0.00 0.00 20 977.3
20260506212215 25 271 3.2 14.5 0.00 0.00 0.00 20 977.4
20260506211839 25 271 3.2 14.5 0.00 0.00 0.00 20 977.4
20260506211639 25 0 0.0 20.9 0.00 0.00 0.00 20 977.6
20260506211339 25 0 0.0 20.9 0.00 0.00 0.00 20 977.6
20260506210839 24 0 0.0 20.9 0.00 0.00 0.00 20 977.6
20260506210549 24 0 0.0 16.1 0.00 0.00 0.00 21 977.7
20260506210339 24 0 0.0 16.1 0.00 0.00 0.00 21 977.7
20260506210134 24 260 1.6 17.7 0.00 0.00 0.00 21 977.7
20260506205839 24 260 1.6 17.7 0.00 0.00 0.00 21 977.7
20260506205536 25 285 3.2 17.7 0.00 0.00 0.00 20 977.9
20260506205339 25 285 3.2 17.7 0.00 0.00 0.00 20 977.9
20260506205141 24 0 0.0 4.8 0.00 0.00 0.00 21 977.8
20260506204839 24 0 0.0 4.8 0.00 0.00 0.00 21 977.8
20260506204339 23 0 0.0 1.6 0.00 0.00 0.00 21 978.0
20260506204256 24 0 0.0 1.6 0.00 0.00 0.00 21 977.9
20260506203839 24 0 0.0 1.6 0.00 0.00 0.00 21 977.9
20260506203608 24 0 0.0 3.2 0.00 0.00 0.00 21 978.1
20260506203339 24 0 0.0 3.2 0.00 0.00 0.00 21 978.1
20260506202339 24 0 0.0 8.0 0.00 0.00 0.00 21 978.3
20260506202142 23 0 0.0 9.7 0.00 0.00 0.00 22 978.4
20260506201839 23 0 0.0 9.7 0.00 0.00 0.00 22 978.4
20260506201202 23 239 1.6 8.0 0.00 0.00 0.00 23 978.5
20260506200839 23 239 1.6 8.0 0.00 0.00 0.00 23 978.5
20260506200602 23 0 0.0 8.0 0.00 0.00 0.00 23 978.5
20260506200339 23 0 0.0 8.0 0.00 0.00 0.00 23 978.5
20260506200113 23 0 0.0 6.4 0.00 0.00 0.00 23 978.6
20260506195839 23 0 0.0 6.4 0.00 0.00 0.00 23 978.6
20260506195645 22 0 0.0 6.4 0.00 0.00 0.00 24 978.7
20260506195339 22 0 0.0 6.4 0.00 0.00 0.00 24 978.7
20260506195153 22 0 0.0 1.6 0.00 0.00 0.00 24 978.8
20260506194839 22 0 0.0 1.6 0.00 0.00 0.00 24 978.8
20260506194339 22 0 0.0 11.3 0.00 0.00 0.00 24 978.9
20260506194149 22 0 0.0 11.3 0.00 0.00 0.00 24 979.0
20260506193839 22 0 0.0 11.3 0.00 0.00 0.00 24 979.0
20260506193700 22 0 0.0 20.9 0.00 0.00 0.00 24 978.9
20260506193339 22 0 0.0 20.9 0.00 0.00 0.00 24 978.9
20260506193136 22 0 0.0 20.9 0.00 0.00 0.00 24 979.0
20260506192839 22 0 0.0 20.9 0.00 0.00 0.00 24 979.0
20260506192639 22 0 0.0 6.4 0.00 0.00 0.00 25 978.2
20260506192339 22 0 0.0 6.4 0.00 0.00 0.00 25 978.2
20260506192145 22 0 0.0 4.8 0.00 0.00 0.00 24 978.3
20260506191839 22 0 0.0 4.8 0.00 0.00 0.00 24 978.3
20260506191339 22 0 0.0 3.2 0.00 0.00 0.00 25 978.5
20260506190839 22 0 0.0 14.5 0.00 0.00 0.00 24 978.6
20260506190339 21 0 0.0 14.5 0.00 0.00 0.00 26 978.5
20260506190243 20 0 0.0 12.9 0.00 0.00 0.00 26 978.7
20260506185839 20 0 0.0 12.9 0.00 0.00 0.00 26 978.7
20260506185759 20 0 0.0 16.1 0.00 0.00 0.00 26 978.8
20260506185339 20 0 0.0 16.1 0.00 0.00 0.00 26 978.8
20260506185253 20 0 0.0 16.1 0.00 0.00 0.00 26 978.9
20260506184839 20 0 0.0 16.1 0.00 0.00 0.00 26 978.9
20260506184339 20 0 0.0 9.7 0.00 0.00 0.00 26 978.9
20260506184117 20 0 0.0 9.7 0.00 0.00 0.00 26 979.0
20260506183839 20 0 0.0 9.7 0.00 0.00 0.00 26 979.0
20260506183119 20 0 0.0 8.0 0.00 0.00 0.00 26 979.3
20260506182839 20 0 0.0 8.0 0.00 0.00 0.00 26 979.3
20260506182627 20 0 0.0 8.0 0.00 0.00 0.00 27 979.3
20260506182339 20 0 0.0 8.0 0.00 0.00 0.00 27 979.3
20260506181839 20 0 0.0 6.4 0.00 0.00 0.00 27 979.3
20260506181640 20 0 0.0 6.4 0.00 0.00 0.00 28 979.4
20260506181339 20 0 0.0 6.4 0.00 0.00 0.00 28 979.4
20260506181121 20 0 0.0 6.4 0.00 0.00 0.00 28 979.4
20260506180839 20 0 0.0 6.4 0.00 0.00 0.00 28 979.4
20260506180549 20 0 0.0 19.3 0.00 0.00 0.00 26 979.4
20260506180339 20 0 0.0 19.3 0.00 0.00 0.00 26 979.4
20260506180125 20 0 0.0 19.3 0.00 0.00 0.00 26 979.4
20260506175839 20 0 0.0 19.3 0.00 0.00 0.00 26 979.4
20260506175726 20 0 0.0 1.6 0.00 0.03 0.00 27 979.4
20260506175339 20 0 0.0 1.6 0.00 0.03 0.00 27 979.4
20260506174839 19 0 0.0 1.6 0.00 0.03 0.00 28 979.5
20260506174628 19 0 0.0 1.6 0.00 0.03 0.00 28 979.6
20260506174339 19 0 0.0 1.6 0.00 0.03 0.00 28 979.6
20260506174200 18 0 0.0 1.6 0.00 0.03 0.00 29 979.7
20260506173839 18 0 0.0 1.6 0.00 0.03 0.00 29 979.7
20260506173339 18 0 0.0 1.6 0.00 0.03 0.00 29 979.7
20260506173107 18 0 0.0 4.8 0.00 0.03 0.00 29 979.8
20260506172838 18 0 0.0 4.8 0.00 0.03 0.00 29 979.8
20260506172052 18 0 0.0 4.8 0.00 0.03 0.00 30 979.8
20260506171839 18 0 0.0 4.8 0.00 0.03 0.00 30 979.8
20260506171339 18 0 0.0 3.2 0.00 0.03 0.00 31 979.8
20260506171148 18 0 0.0 3.2 0.00 0.03 0.00 31 979.8
20260506170839 18 0 0.0 3.2 0.00 0.03 0.00 31 979.8
20260506170339 18 0 0.0 14.5 0.00 0.03 0.00 33 979.8
20260506170052 17 213 1.6 14.5 0.00 0.03 0.00 33 979.8
20260506165839 17 213 1.6 14.5 0.00 0.03 0.00 33 979.8
20260506165339 17 0 0.0 1.6 0.00 0.03 0.00 34 979.8
20260506165127 17 0 0.0 1.6 0.00 0.03 0.00 34 979.9
20260506164838 17 0 0.0 1.6 0.00 0.03 0.00 34 979.9
20260506164340 17 0 0.0 1.6 0.00 0.03 0.00 35 979.9
20260506164156 17 0 0.0 0.0 0.00 0.03 0.00 35 979.9
20260506163839 17 0 0.0 0.0 0.00 0.03 0.00 35 979.9
20260506163221 17 0 0.0 1.6 0.00 0.08 0.00 35 979.8
20260506162839 17 0 0.0 1.6 0.00 0.08 0.00 35 979.8
20260506162159 16 0 0.0 1.6 0.00 0.08 0.00 36 979.9
20260506161839 16 0 0.0 1.6 0.00 0.08 0.00 36 979.9
20260506161649 16 0 0.0 1.6 0.00 0.08 0.00 37 979.9
20260506161338 16 0 0.0 1.6 0.00 0.08 0.00 37 979.9
20260506160734 16 0 0.0 3.2 0.00 0.08 0.00 38 979.9
20260506160339 16 0 0.0 3.2 0.00 0.08 0.00 38 979.9
20260506160214 16 0 0.0 3.2 0.00 0.08 0.00 39 979.9
20260506155839 16 0 0.0 3.2 0.00 0.08 0.00 39 979.9
20260506154839 15 0 0.0 1.6 0.00 0.08 0.00 41 979.8
20260506154339 15 0 0.0 0.0 0.00 0.08 0.00 42 979.9
20260506153839 14 0 0.0 0.0 0.00 0.08 0.00 42 979.9
20260506153517 14 0 0.0 0.0 0.00 0.08 0.00 43 979.9
20260506153339 14 0 0.0 0.0 0.00 0.08 0.00 43 979.9
20260506153138 -17 0.0 0.0 0.00 0.08 0.00 979.9
20260506152838 -17 0.0 0.0 0.00 0.08 0.00 979.9
20260506151839 -17 0.0 0.0 0.00 0.08 0.00 979.9
20260506151557 -17 0.0 0.0 0.00 0.08 0.00 980.0
20260506151339 -17 0.0 0.0 0.00 0.08 0.00 980.0
20260506151206 -17 0.0 0.0 0.00 0.08 0.00 980.0
20260506150838 -17 0.0 0.0 0.00 0.08 0.00 980.0
20260506150339 -17 0.0 0.0 0.00 0.08 0.00 980.0
20260506150212 -17 0.0 0.0 0.00 0.08 0.00 980.0
20260506145839 -17 0.0 0.0 0.00 0.08 0.00 980.0
20260506145634 -17 0.0 0.0 0.00 0.08 0.00 980.0
20260506145339 -17 0.0 0.0 0.00 0.08 0.00 980.0
20260506144838 -17 0.0 0.0 0.00 0.08 0.00 979.9
20260506144338 -17 0.0 0.0 0.00 0.08 0.00 980.1
20260506143839 -17 0.0 0.0 0.00 0.08 0.00 980.1
20260506143339 -17 0.0 0.0 0.00 0.08 0.00 980.0
20260506142339 -17 0.0 0.0 0.00 0.08 0.00 979.9
20260506142047 -17 0.0 0.0 0.00 0.08 0.00 979.9
20260506141838 -17 0.0 0.0 0.00 0.08 0.00 979.9
20260506141338 -17 0.0 0.0 0.00 0.08 0.00 980.0
20260506141055 -17 0.0 0.0 0.00 0.08 0.00 979.9
20260506140838 -17 0.0 0.0 0.00 0.08 0.00 979.9
20260506121137 -17 0.0 0.0 0.00 0.08 0.00 978.2
20260506120838 -17 0.0 0.0 0.00 0.08 0.00 978.2
20260506120015 -17 0.0 0.0 0.00 0.08 0.00 978.3
20260506115838 -17 0.0 0.0 0.00 0.08 0.00 978.3
20260506115657 -17 0.0 0.0 0.00 0.08 0.00 978.3
20260506115338 -17 0.0 0.0 0.00 0.08 0.00 978.3
20260506083634 -17 0.0 0.0 0.00 0.08 0.00 977.3
20260506083337 -17 0.0 0.0 0.00 0.08 0.00 977.3
20260506081829 -17 0.0 0.0 0.00 0.08 0.00 977.4
20260506081337 -17 0.0 0.0 0.00 0.08 0.00 977.4